TimeEDT,TemperatureF,Dew PointF,Humidity,Sea Level PressureIn,VisibilityMPH,Wind Direction,Wind SpeedMPH,Gust SpeedMPH,PrecipitationIn,Events,Conditions,WindDirDegrees,DateUTC
12:15 AM,70.9,63.9,78,30.09,10.0,Calm,Calm,-,N/A,,Clear,0,2013-06-17 04:15:00
12:35 AM,70.7,63.9,79,30.09,10.0,Calm,Calm,-,N/A,,Clear,0,2013-06-17 04:35:00
12:55 AM,70.3,64.0,80,30.09,10.0,Calm,Calm,-,N/A,,Clear,0,2013-06-17 04:55:00
1:15 AM,70.0,63.9,81,30.09,10.0,Calm,Calm,-,N/A,,Clear,0,2013-06-17 05:15:00
1:35 AM,69.8,64.0,82,30.09,10.0,Calm,Calm,-,N/A,,Clear,0,2013-06-17 05:35:00
1:55 AM,69.1,63.9,83,30.08,10.0,Calm,Calm,-,N/A,,Clear,0,2013-06-17 05:55:00
2:15 AM,68.5,64.0,85,30.08,10.0,Calm,Calm,-,N/A,,Clear,0,2013-06-17 06:15:00
2:35 AM,68.2,63.9,86,30.08,10.0,Calm,Calm,-,N/A,,Clear,0,2013-06-17 06:35:00
2:55 AM,67.8,63.9,87,30.08,10.0,Calm,Calm,-,N/A,,Clear,0,2013-06-17 06:55:00
3:15 AM,67.1,63.9,89,30.08,10.0,Calm,Calm,-,N/A,,Clear,0,2013-06-17 07:15:00
3:35 AM,67.1,63.9,89,30.08,10.0,Calm,Calm,-,N/A,,Clear,0,2013-06-17 07:35:00
3:55 AM,67.1,63.9,89,30.07,10.0,Calm,Calm,-,N/A,,Clear,0,2013-06-17 07:55:00
4:15 AM,66.6,63.5,90,30.08,10.0,Calm,Calm,-,N/A,,Clear,0,2013-06-17 08:15:00
4:35 AM,66.4,63.7,91,30.07,10.0,Calm,Calm,-,N/A,,Clear,0,2013-06-17 08:35:00
4:55 AM,66.2,63.7,92,30.07,10.0,Calm,Calm,-,N/A,,Clear,0,2013-06-17 08:55:00
5:15 AM,66.2,63.7,92,30.07,10.0,Calm,Calm,-,N/A,,Clear,0,2013-06-17 09:15:00
5:35 AM,66.0,63.5,92,30.08,10.0,Calm,Calm,-,N/A,,Clear,0,2013-06-17 09:35:00
5:55 AM,65.8,63.7,93,30.07,10.0,Calm,Calm,-,N/A,,Clear,0,2013-06-17 09:55:00
6:15 AM,66.4,63.9,92,30.08,10.0,Calm,Calm,-,N/A,,Clear,0,2013-06-17 10:15:00
6:35 AM,66.6,64.4,93,30.07,10.0,Calm,Calm,-,N/A,,Clear,0,2013-06-17 10:35:00
6:55 AM,67.5,64.6,90,30.08,10.0,Calm,Calm,-,N/A,,Clear,0,2013-06-17 10:55:00
7:15 AM,68.9,65.3,88,30.08,10.0,Calm,Calm,-,N/A,,Clear,0,2013-06-17 11:15:00
7:35 AM,70.0,65.8,87,30.08,10.0,Calm,Calm,-,N/A,,Clear,0,2013-06-17 11:35:00
7:55 AM,70.9,66.2,85,30.08,10.0,SW,4.6,-,N/A,,Clear,220,2013-06-17 11:55:00
8:15 AM,72.0,66.7,84,30.08,10.0,SW,5.8,-,N/A,,Clear,230,2013-06-17 12:15:00
8:35 AM,73.6,67.1,80,30.08,10.0,SW,5.8,-,N/A,,Clear,230,2013-06-17 12:35:00
8:55 AM,75.4,67.6,77,30.08,10.0,SW,5.8,-,N/A,,Clear,230,2013-06-17 12:55:00
9:15 AM,75.7,67.8,76,30.08,10.0,SW,6.9,-,N/A,,Scattered Clouds,230,2013-06-17 13:15:00
9:35 AM,76.3,66.9,73,30.08,10.0,SW,6.9,-,N/A,,Scattered Clouds,220,2013-06-17 13:35:00
9:55 AM,77.9,66.6,68,30.07,10.0,SW,6.9,-,N/A,,Clear,220,2013-06-17 13:55:00
10:15 AM,79.3,65.7,63,30.06,10.0,WSW,8.1,-,N/A,,Clear,250,2013-06-17 14:15:00
10:35 AM,80.6,65.1,59,30.05,10.0,WSW,8.1,-,N/A,,Clear,240,2013-06-17 14:35:00
10:55 AM,81.3,64.8,57,30.06,10.0,SW,6.9,-,N/A,,Scattered Clouds,230,2013-06-17 14:55:00
11:15 AM,82.0,65.3,57,30.05,10.0,SW,5.8,-,N/A,,Scattered Clouds,230,2013-06-17 15:15:00
11:35 AM,83.5,65.8,55,30.05,10.0,South,3.5,-,N/A,,Clear,190,2013-06-17 15:35:00
11:55 AM,84.4,66.2,54,30.05,10.0,SW,5.8,-,N/A,,Clear,220,2013-06-17 15:55:00
12:15 PM,85.1,66.4,53,30.05,10.0,WSW,11.5,-,N/A,,Clear,250,2013-06-17 16:15:00
12:35 PM,84.7,66.6,54,30.04,10.0,SW,5.8,-,N/A,,Scattered Clouds,230,2013-06-17 16:35:00
12:55 PM,84.6,66.4,54,30.04,10.0,WSW,5.8,-,N/A,,Scattered Clouds,240,2013-06-17 16:55:00
1:15 PM,84.7,66.4,54,30.04,10.0,SW,4.6,-,N/A,,Scattered Clouds,220,2013-06-17 17:15:00
1:35 PM,85.5,66.2,52,30.03,10.0,WSW,6.9,-,N/A,,Scattered Clouds,240,2013-06-17 17:35:00
1:55 PM,85.5,66.2,52,30.03,10.0,SW,3.5,-,N/A,,Scattered Clouds,230,2013-06-17 17:55:00
2:15 PM,85.5,65.3,51,30.03,10.0,WSW,4.6,-,N/A,,Scattered Clouds,240,2013-06-17 18:15:00
2:35 PM,86.5,66.7,52,30.02,10.0,Calm,Calm,-,N/A,,Clear,0,2013-06-17 18:35:00
2:55 PM,86.9,67.1,52,30.01,10.0,Calm,Calm,-,N/A,,Clear,0,2013-06-17 18:55:00
3:15 PM,86.2,66.4,51,30.00,10.0,Calm,Calm,-,N/A,,Scattered Clouds,0,2013-06-17 19:15:00
3:35 PM,86.2,67.5,53,29.99,10.0,Calm,Calm,-,N/A,,Scattered Clouds,0,2013-06-17 19:35:00
3:55 PM,84.6,67.3,56,29.98,10.0,Calm,Calm,-,N/A,,Scattered Clouds,0,2013-06-17 19:55:00
4:15 PM,85.3,67.3,55,29.98,10.0,SSW,3.5,-,N/A,,Scattered Clouds,210,2013-06-17 20:15:00
4:35 PM,77.2,70.7,80,29.99,7.0,SW,5.8,-,0.01,,Mostly Cloudy,220,2013-06-17 20:35:00
4:55 PM,79.2,71.8,78,29.99,10.0,SSW,5.8,-,0.01,,Scattered Clouds,210,2013-06-17 20:55:00
5:15 PM,79.7,70.5,73,29.99,10.0,South,4.6,-,N/A,,Scattered Clouds,180,2013-06-17 21:15:00
5:35 PM,79.5,69.8,72,29.98,10.0,South,6.9,-,N/A,,Scattered Clouds,170,2013-06-17 21:35:00
5:55 PM,-9999,-9999,N/A,29.98,10.0,Calm,Calm,-,N/A,,Clear,0,2013-06-17 21:55:00
6:15 PM,79.0,70.9,76,29.99,10.0,Calm,Calm,-,N/A,,Unknown,0,2013-06-17 22:15:00
6:35 PM,78.8,69.8,74,29.98,10.0,South,3.5,-,N/A,,Clear,170,2013-06-17 22:35:00
6:55 PM,78.8,69.6,73,29.99,10.0,SSW,3.5,-,N/A,,Clear,210,2013-06-17 22:55:00
7:15 PM,77.7,69.6,76,29.99,10.0,Calm,Calm,-,N/A,,Clear,0,2013-06-17 23:15:00
7:35 PM,77.2,69.8,78,29.99,10.0,Calm,Calm,-,N/A,,Clear,0,2013-06-17 23:35:00
7:55 PM,77.0,69.8,78,29.99,10.0,Calm,Calm,-,N/A,,Clear,0,2013-06-17 23:55:00
8:15 PM,76.5,70.2,81,29.99,10.0,Calm,Calm,-,N/A,,Clear,0,2013-06-18 00:15:00
8:35 PM,76.1,70.7,83,30.00,10.0,Calm,Calm,-,N/A,,Scattered Clouds,0,2013-06-18 00:35:00
8:55 PM,76.1,70.7,83,30.00,10.0,SSE,3.5,-,N/A,,Overcast,160,2013-06-18 00:55:00
9:15 PM,76.1,70.7,83,30.00,10.0,Calm,Calm,-,N/A,,Mostly Cloudy,0,2013-06-18 01:15:00
9:35 PM,76.1,70.3,82,30.01,10.0,South,3.5,-,N/A,,Mostly Cloudy,190,2013-06-18 01:35:00
9:55 PM,75.7,69.8,82,30.03,10.0,SW,3.5,-,N/A,,Overcast,220,2013-06-18 01:55:00
10:15 PM,74.8,69.8,84,30.03,10.0,Calm,Calm,-,N/A,,Mostly Cloudy,0,2013-06-18 02:15:00
10:35 PM,73.9,69.4,86,30.03,10.0,South,3.5,-,N/A,Rain,Light Rain,190,2013-06-18 02:35:00
10:55 PM,72.7,69.1,88,30.03,7.0,Calm,Calm,-,N/A,Rain,Light Rain,0,2013-06-18 02:55:00
11:15 PM,72.5,69.4,90,30.02,10.0,Calm,Calm,-,0.01,,Mostly Cloudy,0,2013-06-18 03:15:00
11:35 PM,72.7,69.3,89,30.02,10.0,SSW,3.5,-,0.01,,Mostly Cloudy,200,2013-06-18 03:35:00
11:55 PM,72.5,69.3,90,30.01,10.0,Calm,Calm,-,0.01,,Clear,0,2013-06-18 03:55:00